[[{"header":{"parameterUnit":"m.s-1","parameterCategory":1,"la1":30.2991,"la2":30.254,"lo1":-89.0895,"lo2":-89.0444,"dy":0.0017,"dx":0.0017,"nx":28,"ny":28,"refTime":"2023-09-15T21:00:00:Z","depth":0,"parameterNumber":2,"parameterNumberName":"U-component_of_WINDS"},"data":[0,0,0,0,0,0,0,0,0,0,0,0,0,0,0,0,0,0,0,0,0,0,0,0,0,0,0,0,0,0,0,0,0,0,0,0,0,0,0,0,0,0,0,0,0,0,0,0,0,0,0,0,0,0,0,0,0,0,-0.3595,-0.3595,0,-0.3592,-0.3592,-0.3592,-0.3586,-0.3586,-0.3586,-0.3586,-0.3582,-0.3582,-0.3582,0,0,0,0,0,0,0,0,0,0,0,0,0,-0.3597,-0.3597,-0.3595,-0.3595,-0.3595,-0.3592,-0.3592,-0.3592,-0.3586,-0.3586,-0.3586,-0.3586,-0.3582,-0.3582,-0.3582,0,0,0,0,0,0,0,0,0,0,0,0,0,-0.3595,-0.3597,-0.3595,-0.3592,-0.3592,-0.3592,-0.3592,-0.3592,-0.3586,-0.3586,-0.3586,-0.3586,-0.3582,-0.3582,-0.3582,-0.3585,0,0,-0.3582,-0.3582,0,0,0,0,0,0,0,0,-0.3596,-0.3595,-0.3593,-0.3592,-0.3592,-0.3589,-0.3591,-0.3589,-0.3586,-0.3588,-0.3586,-0.3586,-0.3585,-0.3584,-0.3584,-0.3585,-0.3584,-0.3582,-0.3582,-0.3582,-0.3582,0,0,0,0,0,0,0,-0.3596,-0.3595,-0.3594,-0.3593,-0.3592,-0.3591,-0.359,-0.3591,-0.3587,-0.3588,-0.3588,-0.3587,-0.3584,-0.3584,-0.3584,-0.3584,-0.3582,-0.3582,-0.3582,-0.3582,-0.3588,-0.3588,0,0,0,0,0,0,-0.3596,-0.3596,-0.3594,-0.3594,-0.3593,-0.3591,-0.359,-0.359,-0.3587,-0.3587,-0.3588,-0.3587,-0.3584,-0.3584,-0.3584,-0.3587,-0.3582,-0.3582,-0.3582,-0.3587,-0.3588,-0.3588,0,0,0,0,0,0,-0.3596,-0.3596,-0.3594,-0.3595,-0.3594,-0.3591,-0.3591,-0.359,-0.359,-0.3587,-0.3586,-0.3588,-0.3584,-0.3584,-0.3585,-0.3587,-0.3582,-0.3582,-0.3587,-0.3588,-0.3588,-0.3594,0,0,0,0,0,0,-0.3596,-0.3596,-0.3597,-0.3595,-0.3594,-0.3595,-0.3591,-0.359,-0.359,-0.3589,-0.3587,-0.3586,-0.3584,-0.3585,-0.3585,-0.3587,-0.3582,-0.3587,-0.3587,-0.3588,-0.3593,-0.3594,-0.3595,0,0,0,0,0,-0.3597,-0.3599,-0.3597,-0.3597,-0.3595,-0.3595,-0.3595,-0.3592,-0.359,-0.3591,-0.3589,-0.3586,-0.3587,-0.3585,-0.3585,-0.3587,-0.3587,-0.3587,-0.3588,-0.3593,-0.3594,-0.3595,0,0,0,0,0,0,-0.3602,-0.3598,-0.3597,-0.3598,-0.3597,-0.3594,-0.3595,-0.3593,-0.3593,-0.3592,-0.3589,-0.3588,-0.359,-0.3588,-0.3586,-0.359,-0.3586,-0.3587,-0.359,-0.3591,-0.3592,-0.3593,-0.3582,0,0,0,0,0,-0.3603,-0.3603,-0.36,-0.3602,-0.3601,-0.3599,-0.3598,-0.3596,-0.3595,-0.3595,-0.3593,-0.3591,-0.3591,-0.3591,-0.3591,-0.3593,-0.3593,-0.3594,-0.3595,-0.3596,-0.3596,-0.3598,-0.3599,-0.3589,-0.3589,-0.3589,0,0,-0.3605,-0.3604,-0.3604,-0.3603,-0.3602,-0.3602,-0.3598,-0.3599,-0.3599,-0.3595,-0.3596,-0.3594,-0.3593,-0.3594,-0.3595,-0.3593,-0.3599,-0.3596,-0.3597,-0.3597,-0.3598,-0.3599,-0.36,-0.3589,-0.3589,-0.3589,0,0,-0.3611,-0.3609,-0.3611,-0.361,-0.3608,-0.3606,-0.3607,-0.3604,-0.3603,-0.3604,-0.3601,-0.3602,-0.3601,-0.36,-0.36,-0.3605,-0.3603,-0.3605,-0.3609,-0.3611,-0.3612,-0.3612,-0.3615,-0.3616,-0.3606,-0.3606,-0.3606,0,-0.3614,-0.3615,-0.3612,-0.3613,-0.3612,-0.3608,-0.361,-0.3609,-0.3608,-0.3608,-0.3606,-0.3606,-0.3604,-0.3606,-0.3607,-0.3607,-0.3607,-0.3606,-0.3612,-0.3612,-0.3613,-0.3615,-0.3616,-0.3606,-0.3606,-0.3606,-0.3606,0,-0.3619,-0.362,-0.3621,-0.362,-0.362,-0.3621,-0.3618,-0.3619,-0.3617,-0.3615,-0.3616,-0.3615,-0.3614,-0.3614,-0.3612,-0.3616,-0.3615,-0.3612,-0.3609,-0.3614,-0.3616,-0.3617,-0.3606,-0.3606,-0.3606,-0.3606,0,0,-0.3627,-0.3625,-0.3625,-0.3625,-0.3623,-0.3624,-0.3625,-0.3625,-0.3625,-0.3624,-0.3625,-0.3625,-0.3623,-0.3623,-0.362,-0.3622,-0.3627,-0.3619,-0.3619,-0.3621,-0.3631,-0.3634,-0.3635,-0.3625,-0.3625,-0.3625,-0.3632,0,-0.3633,-0.3634,-0.3632,-0.3635,-0.3635,-0.3632,-0.3633,-0.3632,-0.3631,-0.3631,-0.3629,-0.363,-0.3627,-0.3626,-0.3628,-0.3626,-0.3629,-0.3625,-0.3626,-0.3627,-0.3627,-0.3636,-0.3638,-0.3644,-0.3632,-0.3633,-0.3633,0,-0.3639,-0.3638,-0.3641,-0.364,-0.364,-0.3641,-0.3641,-0.3641,-0.364,-0.3639,-0.3639,-0.3636,-0.3638,-0.3634,-0.3636,-0.3634,-0.3634,-0.3633,-0.3634,-0.3634,-0.363,-0.3637,-0.3646,-0.3647,-0.3634,-0.3634,-0.3634,0,-0.3645,-0.3645,-0.3647,-0.3647,-0.3645,-0.3646,-0.3645,-0.3644,-0.3644,-0.3644,-0.3644,-0.3644,-0.3644,-0.3644,-0.3642,-0.3639,-0.3644,-0.364,-0.3643,-0.3644,-0.3645,-0.3645,-0.3655,-0.3644,-0.3644,-0.3644,-0.3644,0,-0.3651,-0.3653,-0.365,-0.3651,-0.3653,-0.365,-0.3653,-0.3652,-0.3651,-0.3652,-0.3649,-0.365,-0.3646,-0.3647,-0.3645,-0.3647,-0.3647,-0.3647,-0.3646,-0.3647,-0.3647,-0.3648,-0.3647,-0.3645,-0.3644,-0.3644,-0.3644,0,-0.3659,-0.3656,-0.3658,-0.3657,-0.3656,-0.3658,-0.3657,-0.3658,-0.3656,-0.3658,-0.3658,-0.3655,-0.3656,-0.3654,-0.3654,-0.3653,-0.3656,-0.3655,-0.3657,-0.3657,-0.366,-0.366,-0.3671,-0.3672,-0.366,-0.366,-0.3661,0,-0.3663,-0.3664,-0.3663,-0.3663,-0.3663,-0.3664,-0.3664,-0.3661,-0.3662,-0.3661,-0.3662,-0.3663,-0.3663,-0.3665,-0.3663,-0.3664,-0.3662,-0.3666,-0.3662,-0.3664,-0.3663,-0.3663,-0.3664,-0.3667,-0.3667,-0.3667,-0.3667,0,-0.3671,-0.367,-0.367,-0.3671,-0.3671,-0.3671,-0.3671,-0.3672,-0.3669,-0.367,-0.367,-0.3671,-0.3671,-0.3672,-0.3672,-0.3671,-0.3669,-0.3669,-0.3669,-0.3671,-0.3672,-0.3672,-0.3659,-0.3668,-0.3668,-0.3668,-0.3668,-0.3668,-0.3677,-0.3678,-0.3678,-0.3679,-0.3678,-0.3678,-0.368,-0.3678,-0.3679,-0.368,-0.3678,-0.3679,-0.3679,-0.3679,-0.3678,-0.3679,-0.3678,-0.3679,-0.3679,-0.368,-0.3681,-0.3671,-0.3679,-0.3679,-0.3679,-0.3679,-0.3679,0,-0.3685,-0.3685,-0.3686,-0.3686,-0.3686,-0.3684,-0.3684,-0.3685,-0.3686,-0.3686,-0.3687,-0.3688,-0.3689,-0.3687,-0.3688,-0.3689,-0.3688,-0.369,-0.369,-0.369,-0.3682,-0.3681,-0.369,-0.369,-0.369,-0.369,-0.369,-0.369,-0.369,-0.3692,-0.3691,-0.3693,-0.3693,-0.3694,-0.3695,-0.3695,-0.3695,-0.3696,-0.3697,-0.3696,-0.3696,-0.3696,-0.3697,-0.3697,-0.3697,-0.3699,-0.3699,-0.3691,-0.369,-0.3689,-0.3689,-0.3699,-0.3699,-0.3706,-0.3707,-0.3707]},{"header":{"parameterUnit":"m.s-1","parameterCategory":1,"la1":30.2991,"la2":30.254,"lo1":-89.0895,"lo2":-89.0444,"dy":0.0017,"dx":0.0017,"nx":28,"ny":28,"refTime":"2023-09-15T21:00:00:Z","depth":0,"parameterNumber":3,"parameterNumberName":"V-component_of_WINDS"},"data":[0,0,0,0,0,0,0,0,0,0,0,0,0,0,0,0,0,0,0,0,0,0,0,0,0,0,0,0,0,0,0,0,0,0,0,0,0,0,0,0,0,0,0,0,0,0,0,0,0,0,0,0,0,0,0,0,0,0,2.4798,2.4797,0,2.4727,2.4726,2.4725,2.4665,2.4665,2.4664,2.4663,2.4586,2.4585,2.4584,0,0,0,0,0,0,0,0,0,0,0,0,0,2.4877,2.4876,2.4798,2.4797,2.4796,2.4727,2.4726,2.4725,2.4665,2.4665,2.4664,2.4663,2.4587,2.4585,2.4583,0,0,0,0,0,0,0,0,0,0,0,0,0,2.4828,2.4876,2.4798,2.4758,2.4754,2.4727,2.4726,2.4725,2.4666,2.4665,2.4664,2.4663,2.4587,2.4585,2.4583,2.4589,0,0,2.4577,2.4576,0,0,0,0,0,0,0,0,2.4831,2.4825,2.4765,2.4761,2.4756,2.4704,2.4726,2.4679,2.4666,2.4699,2.4663,2.4662,2.4626,2.4621,2.4609,2.4586,2.4582,2.4576,2.4575,2.4574,2.4574,0,0,0,0,0,0,0,2.4835,2.4828,2.477,2.4764,2.4759,2.4742,2.4734,2.4717,2.4669,2.4696,2.4692,2.4684,2.4623,2.4612,2.4607,2.4581,2.4576,2.4575,2.4573,2.4572,2.4557,2.4558,0,0,0,0,0,0,2.4845,2.4831,2.4772,2.4768,2.4792,2.4742,2.4733,2.4722,2.4669,2.466,2.4685,2.4682,2.4616,2.461,2.4604,2.4606,2.4574,2.4572,2.4571,2.4556,2.4557,2.4558,0,0,0,0,0,0,2.4847,2.484,2.4775,2.4798,2.4789,2.4741,2.473,2.4721,2.4709,2.4661,2.4651,2.4682,2.4615,2.4607,2.4593,2.4603,2.4571,2.4569,2.4555,2.4556,2.4558,2.4612,0,0,0,0,0,0,2.4849,2.4841,2.4844,2.4799,2.4788,2.4767,2.473,2.472,2.4706,2.4701,2.4655,2.4647,2.4613,2.4597,2.4591,2.4599,2.4568,2.4554,2.4556,2.4557,2.4609,2.4615,2.462,0,0,0,0,0,2.4852,2.4862,2.4845,2.4838,2.4791,2.4768,2.4761,2.4724,2.4707,2.4709,2.4677,2.4648,2.4603,2.4596,2.4589,2.4597,2.4553,2.4555,2.4557,2.4606,2.4614,2.462,0,0,0,0,0,0,2.4908,2.4855,2.4835,2.4831,2.4804,2.4758,2.4758,2.4733,2.4709,2.4705,2.4659,2.4649,2.464,2.4617,2.461,2.4599,2.4574,2.4575,2.4614,2.462,2.4626,2.4631,2.4566,0,0,0,0,0,2.492,2.4907,2.4861,2.4861,2.4849,2.4806,2.4795,2.4768,2.4738,2.4727,2.4694,2.4665,2.4644,2.4631,2.4609,2.4606,2.4594,2.4607,2.4613,2.4618,2.4618,2.4613,2.4618,2.4565,2.4565,2.4565,0,0,2.4944,2.4913,2.4908,2.4871,2.4848,2.4834,2.4797,2.4784,2.4773,2.4724,2.4709,2.4684,2.4649,2.464,2.4634,2.462,2.463,2.462,2.4624,2.4622,2.4615,2.462,2.4625,2.4566,2.4566,2.4566,0,0,2.498,2.4957,2.4953,2.4931,2.4896,2.4867,2.4867,2.4824,2.4806,2.479,2.4753,2.4738,2.4704,2.4679,2.4663,2.4689,2.4661,2.4684,2.4711,2.4707,2.4711,2.4714,2.4722,2.4725,2.4685,2.4685,2.4685,0,2.5013,2.4992,2.4955,2.4944,2.4928,2.4885,2.488,2.486,2.4819,2.4808,2.4794,2.4749,2.4722,2.4706,2.4713,2.4701,2.4697,2.4688,2.4714,2.4717,2.4719,2.4726,2.4729,2.4688,2.4687,2.4687,2.4687,0,2.5035,2.502,2.5022,2.4985,2.4969,2.4962,2.4921,2.491,2.4885,2.4858,2.4841,2.4808,2.4778,2.4772,2.4747,2.4752,2.4744,2.4723,2.4696,2.4728,2.4733,2.4736,2.4692,2.4691,2.469,2.4689,0,0,2.5102,2.5045,2.5046,2.5028,2.4987,2.4974,2.4964,2.4936,2.4926,2.49,2.4888,2.486,2.484,2.4821,2.4793,2.4789,2.481,2.4767,2.4765,2.4775,2.481,2.4826,2.483,2.4792,2.4792,2.4792,2.4813,0,2.513,2.5111,2.5076,2.5067,2.5053,2.5012,2.5002,2.4975,2.4949,2.4932,2.4902,2.4883,2.4858,2.4846,2.4841,2.4809,2.4816,2.4807,2.4778,2.4778,2.4787,2.4833,2.4849,2.487,2.4815,2.4815,2.4816,0,2.516,2.5137,2.5127,2.5086,2.5078,2.5071,2.5041,2.5026,2.4994,2.4975,2.4954,2.4924,2.4909,2.4886,2.4864,2.4859,2.4845,2.4827,2.4827,2.4822,2.4798,2.4827,2.4876,2.4879,2.4819,2.4819,2.4818,0,2.5208,2.5175,2.5164,2.515,2.5102,2.5098,2.5077,2.5044,2.5029,2.5003,2.4992,2.4965,2.495,2.4928,2.489,2.4878,2.4872,2.4847,2.4854,2.4855,2.4853,2.4853,2.4899,2.4847,2.4847,2.4847,2.4847,0,2.5242,2.5237,2.5185,2.5178,2.5171,2.5131,2.5124,2.5099,2.507,2.5056,2.5019,2.5007,2.4959,2.494,2.4911,2.4896,2.4889,2.4872,2.4864,2.4874,2.4876,2.4864,2.486,2.4848,2.4848,2.4848,2.4848,0,2.5294,2.5259,2.5245,2.5201,2.519,2.5186,2.5147,2.5138,2.5111,2.5094,2.5087,2.5043,2.5019,2.498,2.4945,2.4925,2.4914,2.4902,2.4926,2.492,2.4929,2.4928,2.4967,2.4969,2.4918,2.4919,2.4919,0,2.5317,2.5312,2.5268,2.5257,2.5238,2.5221,2.5206,2.5166,2.5151,2.5114,2.5109,2.5082,2.5059,2.5023,2.4986,2.4958,2.4944,2.4959,2.4939,2.4949,2.4942,2.4942,2.494,2.4963,2.4964,2.4965,2.4965,0,2.5361,2.5344,2.5324,2.5298,2.5281,2.5259,2.5234,2.5227,2.5181,2.5166,2.5142,2.5124,2.5088,2.5062,2.5029,2.5006,2.4977,2.4972,2.4972,2.4982,2.4995,2.4986,2.4936,2.4971,2.4971,2.497,2.497,2.497,2.5397,2.5391,2.5359,2.5337,2.5315,2.5293,2.5282,2.5253,2.5233,2.5202,2.5179,2.5156,2.5122,2.5076,2.5054,2.5034,2.5022,2.5022,2.5022,2.5022,2.5025,2.5,2.5028,2.5028,2.5028,2.5028,2.5028,0,2.5437,2.5415,2.5396,2.5363,2.5346,2.5323,2.5294,2.5281,2.5262,2.5234,2.5212,2.5184,2.5158,2.512,2.509,2.5082,2.5068,2.5075,2.5074,2.5069,2.5039,2.5041,2.5087,2.5087,2.5087,2.5087,2.5087,2.5087,2.5456,2.5443,2.5423,2.5398,2.5375,2.5353,2.5338,2.5317,2.5294,2.5265,2.5244,2.522,2.5187,2.5155,2.5129,2.5119,2.5109,2.512,2.5105,2.5077,2.5071,2.5066,2.5068,2.5118,2.5119,2.5136,2.5136,2.5137]}]]